Weather History for Mombasa, Kenya

Change the Weather History Date:

Monday, October 15, 2012

  Actual Average Record
Temperature  
Mean Temperature 77 °F -  
Max Temperature 83 °F 88 °F 87 °F (2013)
Min Temperature 71 °F 71 °F 69 °F (1999)
Cooling Degree Days 12    
Growing Degree Days 27 (Base 50)    
Moisture  
Dew Point 69 °F    
Average Humidity 75    
Maximum Humidity 94    
Minimum Humidity 48    
Precipitation  
Precipitation 0.00 in 0.14 in - ()
Sea Level Pressure  
Sea Level Pressure 29.96 in    
Wind  
Wind Speed 6 mph ()    
Max Wind Speed 14 mph    
Max Gust Speed -    
Visibility 8.1 miles    
Events      
Averages and records for this station are not official NWS values.
T = Trace of Precipitation, MM = Missing Value Source: Averaged Metar Reports

Daily Weather History Graph

Daily Weather History Graph

Search for Another Location

Airport:

Trip Planner

Search our weather history database for the weather conditions in past years. The results will help you decide how hot, cold, wet, or windy it might be!

Date:

Astronomy

Oct. 15, 2012 Rise Set
Actual Time 6:01 AM EAT 6:13 PM EAT
Civil Twilight 5:40 AM EAT 6:34 PM EAT
Nautical Twilight 5:16 AM EAT 6:58 PM EAT
Astronomical Twilight 4:51 AM EAT 7:22 PM EAT
Moon 5:39 AM EAT (10/15) 6:12 PM EAT (10/15)
Length of Visible Light 12h 53m
Length of Day
12h 11m
Waning Crescent, 0% of the Moon is Illuminated
Oct 15
Waning Crescent
Oct 15
New
Oct 22
First Quarter
Oct 29
Full
Nov 7
Last Quarter

Hourly Weather History & Observations

Time (EAT) Temp. Heat Index Dew Point Humidity Pressure Visibility Wind Dir Wind Speed Gust Speed Precip Events Conditions
12:00 AM 75.2 °F - 71.6 °F 89% 29.98 in 6.2 mi WSW 3.5 mph - N/A   Partly Cloudy
12:30 AM 75.2 °F - 71.6 °F 89% 29.95 in 6.2 mi WSW 4.6 mph - N/A   Partly Cloudy
2:00 AM 73.4 °F - 71.6 °F 94% 29.92 in 6.2 mi SSW 3.5 mph - N/A   Partly Cloudy
3:00 AM 74 °F - 71 °F 86% 29.91 in 19 mi SSW 6.9 mph - -   Scattered Clouds
3:00 AM 73.4 °F - 69.8 °F 88% 29.92 in 6.2 mi SSW 6.9 mph - N/A   Partly Cloudy
4:00 AM 73.4 °F - 71.6 °F 94% 29.92 in 6.2 mi SW 6.9 mph - N/A   Partly Cloudy
5:00 AM 73.4 °F - 71.6 °F 94% 29.95 in 6.2 mi SW 4.6 mph - N/A   Partly Cloudy
6:00 AM 71.6 °F - 69.8 °F 94% 29.95 in 6.2 mi WSW 4.6 mph - N/A   Partly Cloudy
7:00 AM 73.4 °F - 69.8 °F 88% 29.98 in 6.2 mi WSW 5.8 mph - N/A   Partly Cloudy
8:00 AM 75.2 °F - 71.6 °F 89% 30.01 in 6.2 mi WSW 9.2 mph - N/A   Partly Cloudy
9:00 AM 79 °F - 69 °F 64% 30.01 in 19 mi South 6.9 mph - -   Mostly Cloudy
9:00 AM 78.8 °F - 69.8 °F 74% 30.01 in 6.2 mi South 6.9 mph - N/A   Mostly Cloudy
10:00 AM 80.6 °F 83.2 °F 68.0 °F 65% 30.01 in 6.2 mi SSE 9.2 mph - N/A   Mostly Cloudy
11:00 AM 82.4 °F 85.4 °F 68.0 °F 62% 30.01 in 6.2 mi SSE 11.5 mph - N/A   Mostly Cloudy
12:00 PM 82.4 °F 85.4 °F 68.0 °F 62% 29.98 in 6.2 mi South 11.5 mph - N/A   Mostly Cloudy
1:00 PM 84.2 °F 87.3 °F 68.0 °F 58% 29.95 in 6.2 mi South 11.5 mph - N/A   Mostly Cloudy
2:00 PM 82.4 °F 84.6 °F 66.2 °F 58% 29.95 in 6.2 mi SE 13.8 mph - N/A   Mostly Cloudy
3:00 PM 83 °F - 67 °F 48% 29.91 in 19 mi South 9.2 mph - -   Scattered Clouds
3:00 PM 82.4 °F 84.6 °F 66.2 °F 58% 29.92 in 6.2 mi South 9.2 mph - N/A   Partly Cloudy
4:00 PM 82.4 °F 84.6 °F 66.2 °F 58% 29.92 in 6.2 mi SSE 8.1 mph - N/A   Partly Cloudy
6:00 PM 78.8 °F - 68.0 °F 69% 29.92 in 6.2 mi SSE 6.9 mph - N/A   Partly Cloudy
7:00 PM 77.0 °F - 69.8 °F 78% 29.92 in 6.2 mi SSE 4.6 mph - N/A   Partly Cloudy
8:00 PM 77.0 °F - 69.8 °F 78% 29.95 in 6.2 mi South 4.6 mph - N/A   Partly Cloudy
9:00 PM 77 °F - 69 °F 69% 29.96 in 19 mi SSE 6.9 mph - -   Scattered Clouds
9:00 PM 77.0 °F - 68.0 °F 74% 29.95 in 6.2 mi SSE 6.9 mph - N/A   Partly Cloudy
10:00 PM 77.0 °F - 68.0 °F 74% 29.98 in 6.2 mi SSE 6.9 mph - N/A   Partly Cloudy
11:00 PM 77.0 °F - 68.0 °F 74% 29.98 in 6.2 mi SSE 5.8 mph - N/A   Partly Cloudy